This is the latest recevied weather packets stored in our database for station/object WV6L-13. If no packets are shown the sender has not sent any weather packets the latest 10 day(s).
| Time | Temp. | Humidity | Pressure | Rain* | Wind** | Luminosity | Snow |
|---|---|---|---|---|---|---|---|
| 1777870794 | 21.11° C | 34% | 919.9 hPa | - | - | - | - |
| 1777870494 | 20.56° C | 34% | 919.9 hPa | - | - | - | - |
| 1777870194 | 20.56° C | 34% | 920.1 hPa | - | - | - | - |
| 1777869894 | 20.56° C | 34% | 919.9 hPa | - | - | - | - |
| 1777869593 | 21.11° C | 33% | 919.9 hPa | - | - | - | - |
| 1777869294 | 21.11° C | 32% | 919.7 hPa | - | - | - | - |
| 1777868994 | 22.22° C | 32% | 919.7 hPa | - | - | - | - |
| 1777868694 | 21.67° C | 32% | 919.7 hPa | - | - | - | - |
| 1777868394 | 21.67° C | 32% | 919.5 hPa | - | - | - | - |
| 1777868094 | 22.22° C | 32% | 919.6 hPa | - | - | - | - |
| 1777867494 | 22.78° C | 31% | 919.2 hPa | - | - | - | - |
| 1777867194 | 22.22° C | 30% | 919.1 hPa | - | - | - | - |
| 1777866894 | 22.78° C | 29% | 919 hPa | - | - | - | - |
| 1777865694 | 23.33° C | 25% | 918.7 hPa | - | - | - | - |
| 1777865394 | 23.89° C | 24% | 918.5 hPa | - | - | - | - |
| 1777847094 | 29.44° C | 16% | 918.3 hPa | - | - | - | - |
| 1777846194 | 29.44° C | 17% | 918.4 hPa | - | - | - | - |
| 1777844695 | 30° C | 16% | 918.9 hPa | - | - | - | - |
| 1777844094 | 30.56° C | 16% | 918.9 hPa | - | - | - | - |
| 1777843794 | 30° C | 16% | 919 hPa | - | - | - | - |
| 1777841694 | 30.56° C | 16% | 919.6 hPa | - | - | - | - |
| 1777841094 | 30° C | 16% | 919.5 hPa | - | - | - | - |
| 1777839894 | 29.44° C | 17% | 920.2 hPa | - | - | - | - |
| 1777839594 | 30° C | 17% | 920.1 hPa | - | - | - | - |
| 1777836594 | 28.89° C | 17% | 920.6 hPa | - | - | - | - |
* Rain since midnight (hover to see other rain measurements)
** Current wind speed in m/s (hover to see current wind gust speed)